Location: Corcelles
(46.1547°N, 4.7234°E)
Time: 00:15:50
(UTC+00:00)

Daily predictions for brighter satellites

Satellite Brightness Start Highest point End
(mag) Time Altitude Azimuth Time Altitude Azimuth Time Altitude Azimuth
CZ-4 R/B 3.8 00:03:55 10° NNE 00:08:40 74° ESE 00:09:37 56° SSE
Landsat 4 3.7 00:06:48 10° N 00:10:36 70° WNW 00:10:43 70° W
Cosmos 1441 Rocket 3.2 00:10:43 69° W 00:10:53 70° W 00:14:51 10° N
Lacrosse 5 1.8 00:10:40 43° SW 00:12:20 85° NW 00:17:28 10° NE
SL-16 R/B 3.9 00:11:55 11° ESE 00:17:14 34° ENE 00:22:47 10° N
BREEZE-M DEB (TANK) 3.6 00:09:27 10° WSW 00:19:48 74° SSE 00:23:27 10° E
Meteor 1-4 Rocket 2.7 00:17:39 10° N 00:21:21 65° ENE 00:21:27 65° E
Okean 1 4.3 00:19:26 10° N 00:23:10 38° ENE 00:24:06 33° ESE
Cosmos 1933 Rocket 4.0 00:23:25 44° SE 00:24:07 49° E 00:28:19 10° NNE
Cosmos 1666 Rocket 3.9 00:23:50 47° WSW 00:24:31 53° WNW 00:28:48 10° N
CZ-4C R/B 4.0 00:18:41 10° WNW 00:24:50 28° WSW 00:26:34 26° SW
Iridium 4 Rocket 3.6 00:24:13 44° S 00:26:03 80° E 00:31:26 10° N
NOSS 2-1 (C) 4.4 00:27:20 10° NW 00:32:26 78° NE 00:39:01 13° SE
Helios 1B rocket 2.3 00:28:23 10° N 00:32:31 78° WNW 00:33:01 65° SW
USA 267 3.6 00:32:12 38° SSW 00:33:36 42° SW 00:39:46 10° WNW
Cosmos 1703 Rocket 4.3 00:32:13 10° N 00:36:33 47° ENE 00:38:05 33° SE
NOSS 2-1 (D) 4.4 00:32:03 10° NW 00:37:14 83° NE 00:43:45 13° SE
Cosmos 2082 Rocket 4.3 00:40:40 11° SE 00:43:28 15° E 00:46:37 10° ENE
SeaSat 1 4.0 00:39:43 10° NE 00:43:34 22° ESE 00:45:02 20° SE
Cosmos 614 Rocket 4.5 00:43:22 37° SSE 00:44:49 47° ESE 00:49:44 10° NNE
CZ-2D R/B 3.2 00:41:51 10° NNE 00:46:47 36° E 00:49:08 25° SE
Cosmos 1833 Rocket 4.1 00:44:54 21° SE 00:47:03 26° ESE 00:51:38 10° NE
Cosmos 2100 Rocket 4.2 00:45:06 32° SSE 00:47:59 63° E 00:54:08 10° NNE
Meteor 1-25 Rocket 4.1 00:47:42 42° SSW 00:49:41 84° WNW 00:55:17 10° N
Cosmos 1184 Rocket 2.8 00:49:58 75° NE 00:49:58 75° NE 00:53:01 10° NNE
Cosmos 1238 Rocket 3.7 00:50:05 41° SW 00:51:38 57° W 00:56:10 10° N
COSMOS 2406 3.9 00:49:39 31° SSE 00:51:46 43° ESE 00:57:11 10° NE
Cosmos 1656 4.1 00:46:51 10° NNW 00:52:14 58° ENE 00:56:32 16° SE
Cosmos 405 Rocket 3.0 00:52:44 49° SE 00:53:15 54° E 00:56:56 10° NNE
Cosmos 1459 Rocket 4.1 00:52:49 33° SSE 00:55:38 66° E 01:01:45 10° NNE
Cosmos 407 Rocket 4.1 00:55:13 32° SSE 00:57:10 47° ESE 01:02:17 10° NNE
Cosmos 1500 4.4 00:58:26 29° ESE 00:59:22 34° E 01:02:49 10° NNE
Meteor 1-29 3.2 00:57:00 10° N 01:00:20 52° WNW 01:00:26 52° W
Meteor 1-20 Rocket 4.3 00:58:23 39° SSW 01:00:27 68° WNW 01:06:08 10° N
SL-24 DEB 4.2 00:57:10 10° N 01:01:55 78° W 01:03:20 45° SSW
Cosmos 1802 Rocket 4.3 01:03:01 29° SSE 01:06:23 66° E 01:12:46 10° NNE
Meteor 1-18 Rocket 4.2 01:04:31 10° NNW 01:10:20 73° W 01:12:51 35° S
CZ-4C R/B 3.4 01:11:32 38° SE 01:12:48 66° ENE 01:16:28 10° N
Cosmos 1515 3.6 01:11:14 10° N 01:15:05 80° W 01:15:49 56° S
Okean 1-7 3.0 01:14:03 10° NNW 01:18:28 72° W 01:19:45 44° SSW
Meteor 1-19 Rocket 4.2 01:19:10 10° NNW 01:24:43 62° W 01:27:06 33° SSW
Cosmos 1725 Rocket 4.3 01:21:06 24° SSE 01:24:53 63° E 01:31:04 10° NNE
ADEOS II 3.4 01:20:20 10° NNE 01:25:01 31° E 01:28:37 15° SSE
NPP 3.8 01:20:40 10° NNE 01:26:03 67° ESE 01:28:50 29° S
Resurs 1-4 Rocket 2.1 01:24:23 10° NNE 01:29:44 84° ESE 01:32:21 31° S
ISS -2.1 01:27:53 10° WNW 01:31:02 36° NNE 01:34:11 10° E
Cosmos 1733 Rocket 4.4 01:29:34 17° SE 01:32:11 32° E 01:36:03 10° NNE
Cosmos 1241 Rocket 4.5 01:26:07 10° NW 01:32:34 86° WSW 01:39:06 10° SSE
AQUA 4.1 01:29:14 10° NNE 01:33:59 63° E 01:36:23 28° S
UNK 3.7 01:33:05 33° S 01:35:05 71° WSW 01:39:44 10° NNW
Abrixas rocket 2.3 01:35:13 22° WNW 01:36:53 61° N 01:39:44 10° E
Tsikada Rocket 4.2 01:33:05 10° N 01:39:32 74° E 01:45:05 14° SSE
ATLAS 5 CENTAUR R/B 3.4 01:36:30 10° NNW 01:41:51 46° NE 01:48:03 10° ESE
Gbstr 26 Del rocket 3.4 01:39:41 10° WNW 01:43:45 67° NNE 01:48:36 10° ESE
Cosmos 2061 Rocket 4.0 01:41:58 26° SSW 01:45:44 78° W 01:52:04 10° N
Cosmos 2173 Rocket 4.3 01:43:02 26° SW 01:46:29 54° WNW 01:52:39 10° N
Cosmos 2369 3.8 01:41:42 10° NNW 01:47:28 81° ENE 01:53:12 10° SSE
Cosmos 1980 Rocket 3.1 01:42:38 10° NNW 01:48:13 51° ENE 01:53:44 10° SE
SL-8 R/B 3.6 01:46:36 22° WSW 01:49:44 89° NNW 01:54:34 10° ENE
Lacrosse 5 3.5 01:51:23 10° W 01:55:53 30° NNW 02:00:23 10° NE
Okean 3 3.4 01:52:28 10° NNW 01:56:39 69° W 01:58:49 27° S
Cosmos 2016 Rocket 4.1 01:53:41 25° SSW 01:57:22 64° WNW 02:03:34 10° N
Meteor 1-5 Rocket 4.3 01:55:49 25° SSW 01:59:14 74° WNW 02:05:07 10° N
SL-16 R/B 2.9 01:57:01 23° SSW 02:00:40 47° W 02:06:42 10° NNW
BREEZE-M DEB (TANK) 3.3 01:58:58 10° WNW 02:01:43 55° SSW 02:10:16 10° SE
Meteor 2-4 Rocket 4.2 01:59:16 10° NNW 02:04:58 48° W 02:08:32 22° SSW
Cosmos 1536 2.9 02:02:53 25° S 02:05:12 79° E 02:09:16 10° N
Cosmos 1869 Rocket 4.4 02:04:44 24° WSW 02:06:34 35° WNW 02:10:35 10° N
Cosmos 1356 4.4 02:04:45 19° SSE 02:06:53 42° E 02:10:09 10° NNE
Cosmos 2278 3.8 02:02:10 10° NNW 02:07:56 80° ENE 02:13:39 10° SSE
Meteor 1-11 Rocket 3.6 02:04:11 21° S 02:07:57 88° WNW 02:13:31 10° N
Cosmos 1190 Rocket 4.4 02:06:38 23° SW 02:09:42 54° WNW 02:14:53 10° NNE
H-2A R/B 4.3 02:06:39 10° ESE 02:10:13 25° ENE 02:13:44 10° N
SL-16 R/B 4.5 02:05:30 10° N 02:10:18 27° NE 02:15:05 10° ESE
Cosmos 1954 Rocket 4.0 02:08:19 23° SSW 02:11:41 85° WNW 02:17:02 10° NNE
Cosmos 1437 Rocket 3.8 02:08:40 10° NNW 02:12:09 29° W 02:13:22 24° WSW
Cosmos 921 Rocket 2.9 02:08:25 10° NNW 02:12:51 85° WSW 02:17:10 10° SSE
Cosmos 1697 Rocket 2.7 02:10:51 10° NNW 02:16:22 57° WSW 02:21:50 10° S
Cosmos 2221 Rocket 3.8 02:12:30 10° NNW 02:16:47 50° W 02:19:26 21° SSW
NOSS 7 (D) 4.4 02:17:19 10° NW 02:20:01 39° SW 02:21:20 25° S
SeaSat 1 2.8 02:16:31 10° NNE 02:21:22 58° WNW 02:24:48 19° SW
Cosmos 1378 Rocket 3.9 02:18:36 10° N 02:23:00 67° E 02:27:25 10° SSE
CZ-4B R/B 3.8 02:20:52 10° N 02:25:47 52° WNW 02:29:11 19° SW
IRS-1D 3.5 02:20:59 10° N 02:25:54 65° WNW 02:29:29 18° SSW
Cosmos 2082 Rocket 2.2 02:22:31 19° SSW 02:26:45 87° WNW 02:32:30 10° NNE
CZ-2D R/B 3.1 02:21:59 10° N 02:26:48 35° WNW 02:30:27 16° WSW
COBE Rocket 3.9 02:23:53 12° S 02:28:32 65° W 02:33:26 10° NNW
Aureole 1 Rocket 4.0 02:26:01 19° SW 02:29:14 50° WNW 02:35:12 10° NNE
Cosmos 1763 Rocket 3.9 02:24:40 10° NNW 02:29:56 66° ENE 02:35:12 10° SSE
Cosmos 1833 Rocket 3.1 02:26:35 18° SW 02:30:39 51° WNW 02:36:08 10° NNE
Cosmos 1900 4.3 02:29:33 19° SW 02:33:05 81° NW 02:38:06 10° NNE
Meteor 1-23 Rocket 4.2 02:27:54 10° NNW 02:33:39 77° W 02:39:26 10° S
ERS-2 3.8 02:31:05 10° SE 02:34:23 34° ENE 02:37:44 10° N
Meteor 1-28 Rocket 3.2 02:31:53 10° SSE 02:35:36 85° ENE 02:39:21 10° NNW
Cosmos 1140 Rocket 4.4 02:32:12 16° WSW 02:35:54 36° WNW 02:40:44 10° N
COSMOS 2406 4.3 02:31:43 14° WSW 02:36:10 35° NW 02:41:26 10° NNE
CBERS-1 4.4 02:34:03 10° N 02:39:02 52° WNW 02:43:03 15° SW
Cosmos 468 Rocket 4.0 02:35:50 10° NNW 02:41:11 88° WSW 02:46:30 10° SSE
Cosmos 2360 4.5 02:37:35 10° NW 02:43:05 47° WSW 02:48:31 10° S
CZ-2D R/B 4.0 02:40:08 10° NNE 02:44:29 61° E 02:48:42 10° S
SWAS 4.5 02:41:09 16° SSW 02:44:34 86° ESE 02:48:54 10° NNE
Cosmos 2233 Rocket 4.3 02:39:40 15° SSW 02:44:44 53° WNW 02:50:52 10° N
Cosmos 1271 Rocket 3.7 02:42:52 10° N 02:46:33 47° ENE 02:50:10 10° SSE
Cosmos 1674 Rocket 3.7 02:43:46 10° NNW 02:48:00 52° W 02:52:11 10° S
Cosmos 1666 4.0 02:48:04 15° WSW 02:50:21 26° WNW 02:53:34 10° NNW
Cosmos 1850 Rocket 4.1 02:46:38 12° SSW 02:51:39 87° ESE 02:57:01 10° NNE
Cosmos 2322 Rocket 3.6 02:46:28 10° NNW 02:51:51 42° NE 02:57:13 10° SE
ATLAS 5 CENTAUR R/B 4.0 02:47:40 10° WNW 02:51:57 37° SW 03:05:11 10° SSE
Cosmos 841 Rocket 4.1 02:52:24 10° NNW 02:57:32 61° ENE 03:02:39 10° SE
Cosmos 540 Rocket 4.2 02:52:39 10° NNW 02:57:44 58° ENE 03:02:48 10° SE
ARIANE 5 R/B 2.6 02:53:06 10° N 02:58:11 72° WNW 03:03:18 10° SSW
Cosmos 1782 Rocket 4.2 02:54:29 10° S 02:58:51 58° E 03:03:12 10° NNE
IRS-1C 4.4 02:53:51 10° N 02:59:05 56° WNW 03:04:12 10° SSW
Cosmos 1544 3.2 03:00:44 10° S 03:04:18 75° E 03:07:54 10° NNE
ADEOS II 2.9 02:59:55 10° N 03:04:45 38° WNW 03:09:33 10° SW
USA 238 DEB 4.3 02:59:07 10° SSW 03:05:28 52° ESE 03:12:06 10° NE
USA 238 4.3 02:59:12 10° SSW 03:05:34 51° ESE 03:12:10 10° NE
Cosmos 1743 2.9 03:02:34 11° SSW 03:06:12 54° WNW 03:09:59 10° N
Cosmos 1818 3.5 03:01:03 10° NW 03:06:30 71° WSW 03:11:53 10° SSE
SL-08 R/B 3.9 03:02:13 10° SSW 03:06:40 40° W 03:11:15 10° NNW
ISS -3.8 03:04:39 10° WNW 03:08:00 69° SSW 03:11:20 10° SE
Resurs 1-4 Rocket 4.0 03:05:39 10° NNW 03:08:52 16° WNW 03:12:04 10° W
Cosmos 1741 Rocket 4.1 03:04:21 10° SSW 03:09:32 71° WNW 03:14:47 10° NNE
Cosmos 1733 Rocket 4.4 03:06:40 11° SW 03:10:01 24° WNW 03:13:35 10° NNW
Spot 4 Rocket 4.1 03:05:11 10° NNE 03:10:21 79° WNW 03:15:30 10° SSW
Cosmos 1908 Rocket 3.7 03:06:15 10° SSW 03:10:40 60° WNW 03:15:07 10° N
Abrixas rocket 2.4 03:09:32 10° W 03:12:14 37° SSW 03:14:56 10° SE
Landsat 5 3.3 03:09:21 10° SSE 03:13:15 89° ENE 03:17:07 10° NNW
Nadezhda 4 Rocket 4.3 03:07:36 10° N 03:13:59 78° E 03:20:19 10° SSE
CENTAUR R/B 3.8 03:10:39 10° S 03:15:51 34° ESE 03:21:50 10° NE
Cosmos 1242 Rocket 3.3 03:18:52 10° NNW 03:21:57 30° W 03:25:01 10° SSW
Sich 1 Rocket 4.1 03:17:52 10° S 03:22:21 66° E 03:26:50 10° NNE
Cosmos 2360 Rocket 3.8 03:18:40 10° NNW 03:24:03 41° NE 03:29:23 10° SE
ATLAS 5 CENTAUR R/B 2.8 03:21:08 10° NW 03:26:37 43° WSW 03:32:51 10° S
Gbstr 26 Del rocket 3.9 03:26:28 10° WNW 03:30:31 34° SW 03:35:22 10° SSE
Cosmos 1980 Rocket 3.1 03:27:10 10° NW 03:31:54 27° WSW 03:36:35 10° SSW
